User: anonymous   Login
Location: Unspecified
(0.0000°N, 0.0000°E)
Time: 08:32:54
(UTC+00:00)
Language:

UFO 11 (USA 174) - Orbit

View from above orbital plane
View from above orbital plane
View from above satellite
View from above satellite

Ground track
Ground track

The orbit data is extracted from the following two-line orbital elements,

1 28117U 03057A   18350.79277267 -.00000088 +00000-0 +00000-0 0  9995
2 28117 005.4916 036.4719 0007334 257.3617 152.3150 01.00274893054981
Epoch (UTC): 16 December 2018 19:01:35
Eccentricity: 0.0007334
inclination: 5.4916°
perigee height: 35754 km
apogee height: 35816 km
right ascension of ascending node: 36.4719°
argument of perigee: 257.3617°
revolutions per day: 1.00274893
mean anomaly at epoch: 152.3150°
orbit number at epoch: 5498

The dashed part of the orbit path shows where the satellite is in the earth's shadow,  

DLR